Change the Weather History Date:

Thursday, March 6, 2014

  Actual Average (KLXV) Record (KLXV)
Temperature  
Mean Temperature 37 °F -  
Max Temperature 55 °F 35 °F 61 °F (1987)
Min Temperature 19 °F 9 °F -13 °F (1984)
Degree Days  
Heating Degree Days 28 43  
Month to date heating degree days 262  
Since 1 July heating degree days 7972  
Cooling Degree Days 0 0  
Month to date cooling degree days 0  
Year to date cooling degree days 0  
Moisture  
Dew Point 10 °F    
Average Humidity 36    
Maximum Humidity 74    
Minimum Humidity 12    
Precipitation  
Precipitation 0.00 in 0.03 in 0.38 in (1991)
Month to date precipitation 0.17  
Year to date precipitation 1.49  
Sea Level Pressure  
Sea Level Pressure 30.07 in    
Wind  
Wind Speed 6 mph (WSW)    
Max Wind Speed 25 mph    
Max Gust Speed 38 mph    
Visibility 10 miles    
Events      
T = Trace of Precipitation, MM = Missing Value Source: NWS Daily Summary

Daily Weather History Graph

Daily Weather History Graph

Search for Another Location

Airport or City:

Trip Planner

Search our weather history database for the weather conditions in past years. The results will help you decide how hot, cold, wet, or windy it might be!

Date:

Astronomy

Mar. 06, 2014 Rise Set
Actual Time 6:29 AM MST 6:02 PM MST
Civil Twilight 6:02 AM MST 6:29 PM MST
Nautical Twilight 5:32 AM MST 7:00 PM MST
Astronomical Twilight 5:01 AM MST 7:30 PM MST
Moon 9:42 AM MST (3/6) No Moon Set
Length of Visible Light 12h 26m
Length of Day
11h 33m
Waxing Crescent, 33% of the Moon is Illuminated
Mar 6
Waxing Crescent
Mar 8
First Quarter
Mar 16
Full
Mar 23
Last Quarter
Mar 30
New

Hourly Weather History & Observations

Time (MST) Temp. Windchill Dew Point Humidity Pressure Visibility Wind Dir Wind Speed Gust Speed Precip Events Conditions
12:15 AM 30.9 °F - 10.0 °F 42% 30.19 in 10.0 mi Calm Calm - N/A   Clear
12:35 AM 30.7 °F 24.1 °F 8.8 °F 40% 30.19 in 10.0 mi NW 6.9 mph - N/A   Clear
12:55 AM 27.7 °F 22.4 °F 11.3 °F 50% 30.19 in 10.0 mi ENE 4.6 mph - N/A   Clear
1:15 AM 28.2 °F 23.1 °F 10.6 °F 48% 30.19 in 10.0 mi SW 4.6 mph - N/A   Clear
1:35 AM 28.4 °F 24.6 °F 9.3 °F 45% 30.19 in 10.0 mi NNW 3.5 mph - N/A   Clear
1:55 AM 28.9 °F 20.4 °F 8.8 °F 43% 30.18 in 10.0 mi NW 9.2 mph - N/A   Clear
2:15 AM 28.6 °F 23.5 °F 9.0 °F 44% 30.17 in 10.0 mi NE 4.6 mph - N/A   Clear
2:35 AM 26.4 °F 20.9 °F 11.1 °F 53% 30.17 in 10.0 mi South 4.6 mph - N/A   Clear
2:55 AM 23.9 °F - 12.7 °F 62% 30.18 in 10.0 mi Calm Calm - N/A   Clear
3:15 AM 23.0 °F - 12.2 °F 63% 30.17 in 10.0 mi Calm Calm - N/A   Clear
3:35 AM 20.7 °F - 12.4 °F 70% 30.17 in 10.0 mi Calm Calm - N/A   Clear
3:55 AM 21.4 °F - 12.9 °F 70% 30.16 in 10.0 mi Calm Calm - N/A   Clear
4:15 AM 25.0 °F 19.3 °F 11.8 °F 57% 30.16 in 10.0 mi WSW 4.6 mph - N/A   Clear
4:35 AM 23.9 °F 16.8 °F 12.2 °F 61% 30.16 in 10.0 mi WSW 5.8 mph - N/A   Clear
4:55 AM 21.7 °F 17.0 °F 12.2 °F 67% 30.16 in 10.0 mi West 3.5 mph - N/A   Clear
5:15 AM 20.1 °F - 12.7 °F 73% 30.17 in 10.0 mi Calm Calm - N/A   Clear
5:35 AM 19.9 °F - 12.4 °F 72% 30.17 in 10.0 mi Calm Calm - N/A   Clear
5:55 AM 19.4 °F 14.3 °F 12.4 °F 74% 30.16 in 10.0 mi NNW 3.5 mph - N/A   Clear
6:15 AM 21.2 °F 16.4 °F 12.2 °F 68% 30.16 in 10.0 mi WNW 3.5 mph - N/A   Clear
6:35 AM 22.5 °F - 12.2 °F 65% 30.16 in 10.0 mi Calm Calm - N/A   Clear
6:55 AM 22.3 °F 17.6 °F 12.9 °F 67% 30.16 in 10.0 mi West 3.5 mph - N/A   Clear
7:15 AM 22.8 °F - 13.1 °F 66% 30.17 in 10.0 mi Calm Calm - N/A   Clear
7:35 AM 23.0 °F - 14.0 °F 68% 30.17 in 10.0 mi Calm Calm - N/A   Clear
7:55 AM 28.6 °F - 15.1 °F 57% 30.18 in 10.0 mi Calm Calm - N/A   Clear
8:15 AM 30.6 °F - 13.6 °F 50% 30.18 in 10.0 mi Calm Calm - N/A   Clear
8:35 AM 33.1 °F - 12.2 °F 42% 30.17 in 10.0 mi Calm Calm - N/A   Clear
8:55 AM 36.1 °F 33.5 °F 12.0 °F 37% 30.17 in 10.0 mi ENE 3.5 mph - N/A   Clear
9:15 AM 39.0 °F - 10.4 °F 31% 30.17 in 10.0 mi Calm Calm - N/A   Clear
9:35 AM 40.1 °F - 9.0 °F 28% 30.16 in 10.0 mi Calm Calm - N/A   Clear
9:55 AM 42.1 °F 39.2 °F 10.2 °F 27% 30.15 in 10.0 mi ESE 4.6 mph - N/A   Clear
10:15 AM 43.7 °F 42.1 °F 9.0 °F 24% 30.14 in 10.0 mi East 3.5 mph - N/A   Clear
10:35 AM 45.7 °F 42.7 °F 9.1 °F 23% 30.14 in 10.0 mi East 5.8 mph - N/A   Clear
10:55 AM 47.8 °F - 9.0 °F 21% 30.12 in 10.0 mi Calm Calm - N/A   Clear
11:15 AM 52.9 °F - 5.5 °F 15% 30.11 in 10.0 mi WSW 15.0 mph 19.6 mph N/A   Clear
11:35 AM 52.9 °F - 7.9 °F 16% 30.09 in 10.0 mi SE 13.8 mph - N/A   Clear
11:55 AM 51.4 °F - 7.7 °F 17% 30.08 in 10.0 mi SE 12.7 mph - N/A   Clear
12:15 PM 50.7 °F - 7.9 °F 18% 30.07 in 10.0 mi SSE 11.5 mph 17.3 mph N/A   Clear
12:35 PM 52.5 °F - 7.5 °F 16% 30.06 in 10.0 mi South 4.6 mph - N/A   Clear
12:55 PM 50.9 °F - 8.2 °F 18% 30.04 in 10.0 mi SSE 6.9 mph - N/A   Clear
1:15 PM 52.2 °F - 5.0 °F 15% 30.02 in 10.0 mi West 15.0 mph 21.9 mph N/A   Clear
1:35 PM 53.1 °F - 4.3 °F 14% 30.00 in 10.0 mi WSW 19.6 mph 26.5 mph N/A   Clear
1:55 PM 53.1 °F - 3.9 °F 14% 30.00 in 10.0 mi West 23.0 mph 31.1 mph N/A   Clear
2:15 PM 53.6 °F - 3.2 °F 13% 29.99 in 10.0 mi West 24.2 mph 34.5 mph N/A   Clear
2:35 PM 53.2 °F - 3.7 °F 13% 29.99 in 10.0 mi WSW 25.3 mph 38.0 mph N/A   Clear
2:55 PM 54.9 °F - 3.7 °F 13% 29.99 in 10.0 mi West 20.7 mph 32.2 mph N/A   Clear
3:15 PM 55.0 °F - 3.0 °F 12% 29.99 in 10.0 mi West 18.4 mph 27.6 mph N/A   Clear
3:35 PM 54.5 °F - 3.9 °F 13% 29.97 in 10.0 mi WSW 12.7 mph 24.2 mph N/A   Clear
3:55 PM 55.0 °F - 3.7 °F 13% 29.97 in 10.0 mi West 10.4 mph 24.2 mph N/A   Clear
4:15 PM 54.9 °F - 2.8 °F 12% 29.96 in 10.0 mi WSW 11.5 mph 26.5 mph N/A   Clear
4:35 PM 55.2 °F - 3.4 °F 12% 29.95 in 10.0 mi WSW 18.4 mph 25.3 mph N/A   Clear
4:55 PM 52.9 °F - 3.7 °F 14% 29.95 in 10.0 mi WSW 17.3 mph 28.8 mph N/A   Clear
5:15 PM 50.9 °F - 3.9 °F 15% 29.95 in 10.0 mi WSW 12.7 mph 24.2 mph N/A   Clear
5:35 PM 49.8 °F - 5.5 °F 17% 29.95 in 10.0 mi WSW 12.7 mph 24.2 mph N/A   Clear
5:55 PM 47.5 °F - 7.5 °F 20% 29.95 in 10.0 mi WSW 10.4 mph 16.1 mph N/A   Clear
6:15 PM 45.9 °F 41.2 °F 9.7 °F 23% 29.95 in 10.0 mi West 9.2 mph - N/A   Clear
6:35 PM 42.8 °F 38.0 °F 10.8 °F 27% 29.95 in 10.0 mi West 8.1 mph - N/A   Clear
6:55 PM 41.9 °F 35.9 °F 11.5 °F 29% 29.95 in 10.0 mi West 10.4 mph - N/A   Clear
7:15 PM 43.7 °F 38.6 °F 9.5 °F 25% 29.96 in 10.0 mi West 9.2 mph - N/A   Clear
7:35 PM 41.4 °F 35.7 °F 10.2 °F 28% 29.97 in 10.0 mi WSW 9.2 mph - N/A   Clear
7:55 PM 39.0 °F 32.8 °F 11.3 °F 32% 29.96 in 10.0 mi WSW 9.2 mph - N/A   Clear
8:15 PM 41.2 °F 36.6 °F 9.7 °F 28% 29.95 in 10.0 mi West 6.9 mph - N/A   Clear
8:35 PM 44.4 °F 38.6 °F 9.3 °F 24% 29.95 in 10.0 mi West 11.5 mph 21.9 mph N/A   Clear
8:55 PM 43.7 °F 36.9 °F 10.2 °F 26% 29.95 in 10.0 mi West 13.8 mph 20.7 mph N/A   Clear
9:15 PM 43.7 °F 36.0 °F 11.3 °F 27% 29.95 in 10.0 mi West 17.3 mph - N/A   Clear
9:35 PM 42.1 °F 35.2 °F 12.7 °F 30% 29.96 in 10.0 mi West 12.7 mph - N/A   Clear
9:55 PM 41.9 °F 34.3 °F 14.0 °F 32% 29.97 in 10.0 mi West 15.0 mph 18.4 mph N/A   Clear
10:15 PM 42.4 °F 36.1 °F 14.0 °F 32% 29.96 in 10.0 mi West 11.5 mph 21.9 mph N/A   Clear
10:35 PM 41.9 °F 34.3 °F 13.8 °F 32% 29.95 in 10.0 mi WSW 15.0 mph 20.7 mph N/A   Clear
10:55 PM 41.4 °F 32.4 °F 14.2 °F 33% 29.95 in 10.0 mi SW 19.6 mph 27.6 mph N/A   Clear
11:15 PM 40.8 °F 35.6 °F 14.7 °F 35% 29.97 in 10.0 mi WSW 8.1 mph 17.3 mph N/A   Clear
11:35 PM 39.9 °F 30.0 °F 17.6 °F 41% 29.96 in 10.0 mi WSW 21.9 mph 28.8 mph N/A   Clear
11:55 PM 37.4 °F 26.1 °F 23.0 °F 56% 29.95 in 10.0 mi WSW 24.2 mph 32.2 mph N/A   Clear